Regional Weather Roundup
Issued by NWS Jackson, KY

Home | Current Version | Previous Version | Text Only | Print | Product List | Glossary Off
Versions: 1 2 3 4 5 6 7 8 9 10 11 12 13 14 15 16 17 18 19 20 21 22 23 24 25 26 27 28 29 30 31 32 33 34 35 36 37 38 39 40 41 42 43 44 45 46 47 48 49 50

000
ASUS43 KJKL 261519
RWRJKL

EAST KENTUCKY HOURLY WEATHER ROUNDUP
NATIONAL WEATHER SERVICE JACKSON KY
1000 AM EST MON JAN 26 2015

NOTE: "FAIR" INDICATES FEW OR NO CLOUDS BELOW 12,000 FEET WITH
NO SIGNIFICANT WEATHER AND/OR OBSTRUCTIONS TO VISIBILITY.

* THESE REPORTS ARE NOT UNDER NWS QUALITY CONTROL AND MAY NOT
  REPORT WEATHER SUCH AS PRECIPITATION AND FOG.

KYZ079-080-083-085-087-088-110-112-115-119-120-261600
...EASTERN KENTUCKY...

CITY           SKY/WX    TMP DP  RH WIND       PRES   REMARKS
JACKSON        LGT SNOW  26  23  88 NW10G17   29.80R VSB 3/4 WCI  16
LONDON         MIX PCPN  28  23  81 NW13      29.85R WCI  17
SOMERSET*      CLOUDY    27  25  93 NW10      29.91R WCI  17
MONTICELLO*    MIX PCPN  28  26  92 NW12      29.93R WCI  18
MIDDLESBORO*   CLOUDY    33  30  88 N6        29.82R WCI  28
HARLAN APT*    CLOUDY    32  30  93 W15G21    29.79R WCI  22
BLACK MTN*       N/A     27  27 100 VRB9        N/A  WCI  17
PIKEVILLE APT* LGT SNOW  30  30 100 W12G18    29.74R VSB 3/4 WCI  21
BIG SANDY*     LGT SNOW  30  29  97 W13G20    29.76R WCI  20
MOREHEAD APT*  CLOUDY    23  19  86 NW13      29.87R WCI  11
ASHLAND*       CLOUDY   N/A N/A N/A NW7       29.80R VSB 3/4
$$

KYZ035-036-041-042-044-050-067-078-099-261600
...CENTRAL KENTUCKY...

CITY           SKY/WX    TMP DP  RH WIND       PRES   REMARKS
MT STERLING*   CLOUDY    25  21  86 NW8       29.88R WCI  16
FLEMING/MASON* CLOUDY    22  19  87 NW10      29.87R WCI  11
DANVILLE*      CLOUDY    25  23  93 NW14      29.90R WCI  13
RICHMOND*      CLOUDY    25  21  86 W13       29.88R WCI  13
LEXINGTON      CLOUDY    23  20  88 NW13      29.89R WCI  11
FRANKFORT      CLOUDY    24  18  77 NW8       29.91R WCI  15
$$

KYZ091>093-OHZ055-061-077-WVZ005-015-034-035-042-261600
...SOUTHERN OHIO/WEST VIRGINIA...

CITY           SKY/WX    TMP DP  RH WIND       PRES   REMARKS
COVINGTON      CLOUDY    21  16  79 N15       29.91R WCI   8
COLUMBUS       PTSUNNY   20  15  81 N16       29.81R WCI   6
DAYTON         CLOUDY    18  12  77 N18       29.89R WCI   2
WILMINGTON     MOSUNNY   20  14  77 NW13      29.84R WCI   7
HUNTINGTON     LGT SNOW  27  25  92 NW9G18    29.78R FOG     WCI  18
CHARLESTON     LGTSLEET  35  34  96 NW7       29.70R VSB 1   WCI  29
PINEVILLE*     CLOUDY    41  41 100 MISG      29.70S
BECKLEY        CLOUDY    39  33  79 CALM      29.62R
BLUEFIELD      CLOUDY    38  32  79 W6        29.63R WCI  33
$$

VAZ002-007-008-TNZ017-027-036-066-071-261600
...SOUTHWEST VIRGINIA/EAST TENNESSEE...

CITY           SKY/WX    TMP DP  RH WIND       PRES   REMARKS
WISE*          LGT SNOW  34  34 100 NW12G17   29.68R WCI  25
JONESVILLE*    CLOUDY    36  32  87 NW8       29.78R WCI  29
ABINGDON*      DRIZZLE   40  39  98 W7        29.67R WCI  35
BRISTOL        CLOUDY    40  37  89 W10       29.72R WCI  33
KNOXVILLE      CLOUDY    38  31  76 W15       29.81R WCI  29
OAK RIDGE      CLOUDY    38  31  76 VRB5      29.83R WCI  34
CROSSVILLE     CLOUDY    30  27  88 NW16G22   29.84S FOG     WCI  19
NASHVILLE      CLOUDY    33  27  78 NW15G23   29.99R WCI  23
$$

...KEY TO REMARKS...
VSB - VISIBILITY IN MILES
WCI - WIND CHILL INDEX
HX  - HEAT INDEX

$$



USA.gov is the U.S. government's official web portal to all federal, state and local government web resources and services.